Precipitable_Water
0.61 0.60 0.59 0.59 0.58 0.57 0.57 0.57 0.56 0.55 0.55 0.55 0.55 0.53 0.52 0.51 0.50 0.48 0.48 0.50 0.51 0.50 0.50 0.47 0.45 0.46 0.45 0.45 0.46 0.48 0.50 0.48 0.50 0.55 0.32 0.27 0.25 0.26 0.26 0.26 0.26 0.27 0.30 0.32 0.32 0.32 0.33 0.24 0.22 0.22 0.20 0.18 0.16 0.13 0.14 0.16 0.17 0.19 0.18 0.18 0.15 0.17 0.17 0.19 0.19 0.21 0.23 0.20 0.27 0.30 0.28 0.26 0.25 0.34 0.42 0.47 0.48 0.48 0.48 0.47 0.49 0.54 0.52 0.60 0.75 1.04 1.06 1.16
0.60 0.60 0.60 0.60 0.60 0.59 0.58 0.59 0.58 0.57 0.57 0.56 0.56 0.54 0.52 0.51 0.50 0.48 0.48 0.50 0.50 0.50 0.50 0.49 0.47 0.46 0.46 0.46 0.48 0.49 0.50 0.46 0.44 0.31 0.27 0.26 0.25 0.24 0.26 0.26 0.25 0.26 0.31 0.30 0.32 0.26 0.22 0.22 0.25 0.23 0.19 0.14 0.17 0.15 0.17 0.13 0.16 0.14 0.15 0.17 0.16 0.19 0.19 0.21 0.24 0.25 0.22 0.25 0.27 0.21 0.24 0.28 0.28 0.32 0.38 0.34 0.37 0.44 0.42 0.42 0.43 0.46 0.52 0.57 0.62 0.93 0.98 1.00
0.62 0.61 0.62 0.63 0.62 0.61 0.60 0.60 0.59 0.58 0.57 0.57 0.55 0.53 0.53 0.51 0.50 0.48 0.47 0.49 0.50 0.50 0.50 0.50 0.48 0.48 0.46 0.47 0.48 0.51 0.51 0.45 0.50 0.31 0.30 0.29 0.25 0.25 0.25 0.25 0.24 0.26 0.28 0.29 0.31 0.19 0.19 0.21 0.23 0.21 0.17 0.13 0.16 0.15 0.17 0.16 0.16 0.16 0.14 0.13 0.15 0.20 0.21 0.22 0.22 0.19 0.22 0.25 0.25 0.22 0.23 0.26 0.28 0.31 0.39 0.37 0.37 0.40 0.38 0.36 0.43 0.43 0.42 0.48 0.52 0.65 0.93 0.90
0.64 0.64 0.64 0.64 0.64 0.63 0.62 0.61 0.59 0.59 0.58 0.56 0.55 0.54 0.53 0.51 0.50 0.48 0.47 0.49 0.49 0.50 0.50 0.50 0.49 0.48 0.47 0.46 0.50 0.53 0.49 0.49 0.41 0.32 0.36 0.30 0.28 0.26 0.25 0.24 0.23 0.24 0.31 0.31 0.32 0.22 0.18 0.15 0.16 0.15 0.13 0.12 0.16 0.19 0.17 0.17 0.15 0.17 0.16 0.13 0.12 0.15 0.15 0.17 0.19 0.20 0.20 0.22 0.21 0.22 0.30 0.27 0.34 0.34 0.38 0.36 0.36 0.38 0.37 0.36 0.35 0.35 0.38 0.38 0.42 0.74 0.72 0.86
0.65 0.65 0.63 0.64 0.65 0.64 0.63 0.62 0.61 0.60 0.58 0.57 0.55 0.54 0.53 0.51 0.50 0.48 0.47 0.49 0.49 0.49 0.50 0.50 0.48 0.48 0.47 0.51 0.56 0.57 0.52 0.44 0.30 0.34 0.36 0.31 0.29 0.29 0.26 0.22 0.24 0.28 0.30 0.31 0.30 0.27 0.23 0.18 0.19 0.17 0.13 0.13 0.15 0.17 0.19 0.16 0.17 0.16 0.15 0.16 0.16 0.16 0.13 0.14 0.16 0.19 0.18 0.25 0.24 0.21 0.26 0.30 0.37 0.37 0.35 0.33 0.29 0.29 0.32 0.35 0.34 0.35 0.37 0.32 0.35 0.69 0.65 0.58
0.66 0.65 0.63 0.63 0.65 0.64 0.63 0.63 0.63 0.62 0.59 0.57 0.56 0.54 0.52 0.51 0.49 0.48 0.47 0.48 0.48 0.49 0.49 0.50 0.50 0.49 0.49 0.52 0.50 0.48 0.46 0.17 0.32 0.33 0.36 0.30 0.30 0.28 0.26 0.24 0.25 0.30 0.33 0.31 0.31 0.21 0.18 0.19 0.16 0.13 0.14 0.11 0.13 0.14 0.17 0.17 0.17 0.15 0.18 0.17 0.15 0.12 0.12 0.17 0.18 0.20 0.24 0.22 0.22 0.24 0.30 0.32 0.31 0.32 0.33 0.30 0.26 0.24 0.30 0.34 0.31 0.31 0.33 0.35 0.36 0.45 0.66 0.49
0.68 0.66 0.64 0.63 0.62 0.63 0.63 0.63 0.63 0.62 0.60 0.58 0.56 0.54 0.52 0.51 0.50 0.48 0.47 0.49 0.48 0.49 0.49 0.50 0.51 0.53 0.51 0.51 0.52 0.42 0.39 0.29 0.33 0.37 0.30 0.31 0.28 0.28 0.32 0.30 0.29 0.31 0.31 0.30 0.24 0.20 0.19 0.17 0.15 0.13 0.13 0.14 0.14 0.12 0.15 0.16 0.17 0.16 0.14 0.14 0.13 0.13 0.13 0.18 0.18 0.19 0.20 0.19 0.20 0.25 0.29 0.28 0.28 0.24 0.26 0.23 0.22 0.21 0.28 0.33 0.28 0.33 0.36 0.34 0.32 0.35 0.35 0.39
0.70 0.68 0.66 0.66 0.63 0.61 0.61 0.62 0.63 0.62 0.59 0.58 0.56 0.54 0.53 0.51 0.50 0.49 0.47 0.49 0.49 0.48 0.48 0.51 0.53 0.53 0.56 0.51 0.54 0.54 0.51 0.27 0.34 0.35 0.31 0.36 0.31 0.32 0.35 0.36 0.35 0.31 0.24 0.17 0.17 0.16 0.11 0.16 0.15 0.16 0.11 0.10 0.13 0.14 0.15 0.15 0.15 0.13 0.12 0.12 0.11 0.11 0.15 0.18 0.16 0.15 0.15 0.18 0.18 0.18 0.20 0.19 0.16 0.14 0.15 0.15 0.16 0.20 0.21 0.23 0.24 0.28 0.32 0.32 0.31 0.33 0.34 0.35
0.72 0.71 0.69 0.68 0.66 0.64 0.62 0.63 0.64 0.62 0.60 0.58 0.55 0.53 0.52 0.51 0.51 0.49 0.49 0.49 0.48 0.48 0.49 0.51 0.54 0.55 0.59 0.53 0.43 0.42 0.30 0.33 0.32 0.32 0.35 0.33 0.36 0.37 0.37 0.34 0.42 0.29 0.22 0.21 0.19 0.16 0.18 0.18 0.16 0.15 0.12 0.13 0.15 0.13 0.14 0.13 0.12 0.13 0.12 0.14 0.14 0.15 0.17 0.16 0.14 0.13 0.12 0.12 0.14 0.13 0.12 0.13 0.13 0.13 0.12 0.13 0.15 0.17 0.20 0.20 0.20 0.22 0.27 0.28 0.25 0.29 0.32 0.34
0.73 0.72 0.71 0.70 0.69 0.67 0.65 0.65 0.65 0.64 0.61 0.58 0.55 0.53 0.52 0.52 0.52 0.51 0.51 0.50 0.49 0.49 0.50 0.54 0.55 0.59 0.55 0.51 0.55 0.49 0.39 0.41 0.40 0.38 0.33 0.30 0.32 0.32 0.33 0.29 0.27 0.24 0.22 0.23 0.17 0.18 0.17 0.19 0.15 0.15 0.12 0.09 0.11 0.09 0.09 0.12 0.12 0.13 0.16 0.16 0.15 0.15 0.14 0.14 0.13 0.14 0.14 0.13 0.15 0.13 0.13 0.13 0.14 0.13 0.11 0.13 0.13 0.14 0.15 0.15 0.18 0.22 0.21 0.23 0.26 0.26 0.27 0.29
0.74 0.72 0.71 0.71 0.70 0.69 0.68 0.68 0.67 0.67 0.64 0.59 0.55 0.54 0.53 0.55 0.53 0.54 0.52 0.51 0.50 0.50 0.51 0.53 0.58 0.55 0.48 0.51 0.44 0.39 0.41 0.41 0.33 0.40 0.33 0.34 0.33 0.31 0.24 0.27 0.25 0.23 0.24 0.20 0.21 0.19 0.17 0.15 0.18 0.15 0.14 0.15 0.15 0.12 0.11 0.12 0.12 0.13 0.13 0.11 0.11 0.12 0.13 0.13 0.13 0.14 0.15 0.14 0.14 0.12 0.11 0.12 0.12 0.13 0.11 0.12 0.15 0.17 0.16 0.15 0.16 0.18 0.20 0.21 0.22 0.23 0.22 0.24
0.74 0.73 0.72 0.72 0.73 0.72 0.71 0.70 0.68 0.66 0.64 0.60 0.55 0.54 0.56 0.55 0.54 0.53 0.52 0.50 0.50 0.49 0.51 0.53 0.55 0.53 0.51 0.51 0.47 0.30 0.36 0.36 0.36 0.38 0.37 0.36 0.34 0.30 0.28 0.27 0.25 0.23 0.22 0.22 0.23 0.23 0.19 0.17 0.15 0.14 0.15 0.16 0.12 0.11 0.14 0.15 0.13 0.11 0.11 0.11 0.11 0.12 0.12 0.13 0.13 0.13 0.15 0.14 0.14 0.13 0.12 0.10 0.11 0.11 0.13 0.12 0.16 0.22 0.21 0.20 0.20 0.20 0.20 0.19 0.18 0.19 0.20 0.21
0.72 0.73 0.73 0.73 0.73 0.74 0.72 0.70 0.68 0.65 0.62 0.58 0.55 0.55 0.57 0.56 0.54 0.53 0.53 0.52 0.51 0.53 0.55 0.58 0.58 0.59 0.55 0.52 0.32 0.36 0.36 0.37 0.42 0.34 0.41 0.40 0.38 0.38 0.33 0.30 0.25 0.24 0.21 0.21 0.22 0.23 0.20 0.18 0.17 0.13 0.16 0.17 0.14 0.12 0.16 0.17 0.17 0.15 0.13 0.12 0.11 0.12 0.12 0.15 0.16 0.16 0.13 0.12 0.14 0.15 0.07 0.10 0.11 0.13 0.15 0.19 0.25 0.21 0.18 0.18 0.18 0.17 0.16 0.16 0.16 0.19 0.20 0.23
0.71 0.72 0.73 0.73 0.73 0.74 0.72 0.70 0.67 0.64 0.61 0.58 0.56 0.56 0.56 0.54 0.55 0.56 0.54 0.54 0.54 0.52 0.56 0.63 0.64 0.57 0.52 0.49 0.40 0.43 0.34 0.39 0.38 0.41 0.39 0.39 0.38 0.36 0.36 0.33 0.27 0.24 0.24 0.21 0.22 0.22 0.20 0.20 0.17 0.15 0.16 0.14 0.13 0.15 0.13 0.13 0.15 0.15 0.16 0.15 0.13 0.12 0.14 0.15 0.17 0.17 0.10 0.12 0.14 0.13 0.07 0.13 0.16 0.16 0.18 0.20 0.24 0.19 0.18 0.17 0.16 0.16 0.18 0.21 0.24 0.24 0.26 0.28
0.71 0.71 0.72 0.72 0.73 0.73 0.73 0.71 0.66 0.62 0.60 0.57 0.56 0.56 0.55 0.54 0.55 0.56 0.55 0.54 0.54 0.56 0.58 0.64 0.66 0.60 0.55 0.49 0.49 0.47 0.46 0.41 0.41 0.40 0.40 0.32 0.34 0.36 0.34 0.31 0.30 0.26 0.26 0.24 0.23 0.25 0.24 0.19 0.17 0.16 0.18 0.22 0.17 0.14 0.15 0.16 0.17 0.18 0.17 0.16 0.16 0.15 0.15 0.17 0.20 0.18 0.17 0.15 0.18 0.15 0.10 0.14 0.17 0.16 0.19 0.21 0.20 0.19 0.18 0.17 0.18 0.19 0.21 0.23 0.25 0.27 0.28 0.27
0.71 0.70 0.70 0.71 0.72 0.72 0.72 0.72 0.67 0.61 0.59 0.56 0.56 0.55 0.55 0.55 0.55 0.55 0.56 0.56 0.58 0.60 0.61 0.60 0.59 0.61 0.52 0.44 0.44 0.53 0.46 0.38 0.36 0.33 0.40 0.36 0.35 0.33 0.31 0.30 0.31 0.28 0.27 0.25 0.26 0.25 0.24 0.21 0.17 0.18 0.20 0.22 0.19 0.18 0.18 0.17 0.17 0.18 0.17 0.16 0.17 0.16 0.17 0.18 0.20 0.22 0.19 0.16 0.17 0.14 0.12 0.13 0.17 0.20 0.21 0.21 0.21 0.22 0.25 0.24 0.21 0.21 0.21 0.24 0.27 0.27 0.26 0.25
0.71 0.70 0.68 0.68 0.69 0.69 0.71 0.71 0.67 0.61 0.57 0.57 0.55 0.54 0.55 0.57 0.57 0.56 0.56 0.58 0.59 0.66 0.62 0.53 0.59 0.58 0.45 0.44 0.49 0.40 0.41 0.40 0.38 0.38 0.42 0.40 0.32 0.34 0.32 0.33 0.34 0.32 0.29 0.29 0.29 0.29 0.27 0.23 0.24 0.22 0.24 0.22 0.20 0.19 0.18 0.18 0.21 0.21 0.21 0.15 0.16 0.17 0.17 0.17 0.18 0.20 0.20 0.19 0.16 0.15 0.13 0.13 0.15 0.18 0.21 0.23 0.23 0.23 0.24 0.25 0.26 0.27 0.24 0.23 0.22 0.25 0.28 0.26
0.73 0.71 0.70 0.68 0.67 0.66 0.68 0.70 0.68 0.60 0.57 0.55 0.55 0.51 0.51 0.56 0.61 0.58 0.53 0.55 0.57 0.60 0.68 0.67 0.59 0.51 0.47 0.53 0.37 0.38 0.41 0.37 0.38 0.37 0.36 0.41 0.38 0.34 0.34 0.31 0.32 0.25 0.30 0.29 0.31 0.28 0.30 0.25 0.26 0.22 0.24 0.24 0.27 0.26 0.22 0.18 0.21 0.20 0.22 0.23 0.22 0.24 0.21 0.18 0.17 0.16 0.18 0.18 0.20 0.19 0.16 0.15 0.16 0.15 0.16 0.19 0.22 0.23 0.27 0.26 0.24 0.25 0.27 0.28 0.27 0.27 0.29 0.28
0.74 0.72 0.71 0.70 0.68 0.66 0.65 0.68 0.69 0.62 0.57 0.54 0.54 0.57 0.57 0.64 0.65 0.61 0.57 0.60 0.51 0.50 0.47 0.49 0.44 0.34 0.28 0.38 0.41 0.41 0.41 0.36 0.35 0.36 0.38 0.41 0.40 0.36 0.35 0.31 0.26 0.29 0.28 0.30 0.33 0.28 0.30 0.26 0.26 0.24 0.25 0.27 0.30 0.27 0.22 0.20 0.20 0.18 0.18 0.17 0.16 0.14 0.14 0.15 0.18 0.21 0.21 0.19 0.19 0.18 0.16 0.16 0.17 0.16 0.17 0.18 0.20 0.22 0.25 0.27 0.26 0.26 0.26 0.26 0.28 0.28 0.29 0.23
0.75 0.73 0.73 0.72 0.71 0.69 0.65 0.65 0.69 0.64 0.59 0.53 0.51 0.65 0.75 0.57 0.57 0.57 0.61 0.60 0.53 0.48 0.41 0.40 0.38 0.36 0.39 0.40 0.38 0.40 0.41 0.36 0.34 0.39 0.38 0.42 0.31 0.33 0.35 0.36 0.32 0.33 0.31 0.30 0.32 0.31 0.31 0.24 0.22 0.23 0.26 0.28 0.26 0.23 0.22 0.21 0.21 0.19 0.17 0.16 0.17 0.17 0.18 0.21 0.21 0.20 0.21 0.20 0.21 0.21 0.19 0.18 0.17 0.16 0.17 0.19 0.21 0.23 0.25 0.26 0.28 0.27 0.27 0.30 0.36 0.37 0.39 0.37
0.75 0.74 0.73 0.73 0.72 0.71 0.69 0.65 0.68 0.69 0.66 0.57 0.55 0.62 0.60 0.57 0.53 0.52 0.55 0.55 0.56 0.49 0.42 0.41 0.40 0.35 0.35 0.39 0.39 0.37 0.33 0.37 0.39 0.41 0.39 0.42 0.33 0.30 0.33 0.30 0.29 0.25 0.30 0.34 0.27 0.28 0.30 0.28 0.26 0.29 0.30 0.27 0.22 0.21 0.22 0.22 0.21 0.20 0.19 0.18 0.17 0.19 0.17 0.22 0.22 0.25 0.29 0.19 0.18 0.21 0.21 0.19 0.18 0.18 0.19 0.22 0.23 0.23 0.26 0.28 0.30 0.35 0.38 0.37 0.34 0.36 0.38 0.40
0.76 0.75 0.74 0.74 0.73 0.73 0.71 0.68 0.69 0.72 0.72 0.66 0.55 0.54 0.63 0.63 0.64 0.70 0.62 0.43 0.52 0.53 0.48 0.45 0.44 0.43 0.46 0.43 0.42 0.34 0.33 0.36 0.39 0.43 0.46 0.37 0.33 0.30 0.29 0.24 0.22 0.22 0.30 0.33 0.32 0.24 0.25 0.30 0.33 0.38 0.32 0.26 0.22 0.23 0.25 0.24 0.22 0.21 0.19 0.18 0.18 0.21 0.26 0.26 0.23 0.27 0.28 0.25 0.22 0.21 0.19 0.21 0.23 0.23 0.25 0.26 0.28 0.29 0.32 0.37 0.41 0.38 0.37 0.38 0.37 0.35 0.42 0.42
0.77 0.76 0.75 0.76 0.74 0.73 0.72 0.71 0.71 0.72 0.73 0.78 0.74 0.63 0.64 0.68 0.70 0.72 0.60 0.47 0.43 0.56 0.50 0.46 0.42 0.41 0.42 0.46 0.46 0.41 0.29 0.35 0.37 0.43 0.42 0.41 0.29 0.32 0.30 0.21 0.21 0.26 0.28 0.27 0.22 0.26 0.25 0.29 0.33 0.37 0.29 0.24 0.21 0.23 0.25 0.27 0.25 0.22 0.24 0.24 0.21 0.23 0.22 0.25 0.30 0.29 0.29 0.24 0.23 0.24 0.22 0.23 0.24 0.25 0.26 0.28 0.30 0.34 0.38 0.38 0.38 0.38 0.35 0.39 0.43 0.43 0.41 0.40
0.78 0.77 0.76 0.76 0.76 0.74 0.77 0.75 0.73 0.73 0.74 0.73 0.72 0.63 0.71 0.73 0.67 0.66 0.55 0.42 0.39 0.50 0.50 0.48 0.44 0.41 0.40 0.39 0.45 0.37 0.30 0.32 0.30 0.34 0.44 0.35 0.28 0.30 0.22 0.23 0.25 0.23 0.21 0.24 0.28 0.23 0.23 0.31 0.36 0.34 0.30 0.24 0.22 0.24 0.24 0.25 0.24 0.27 0.27 0.27 0.28 0.30 0.27 0.24 0.27 0.29 0.28 0.27 0.26 0.23 0.20 0.19 0.22 0.26 0.26 0.30 0.31 0.33 0.34 0.33 0.35 0.40 0.42 0.42 0.44 0.47 0.47 0.45
0.80 0.78 0.77 0.77 0.75 0.76 0.79 0.83 0.70 0.65 0.75 0.85 0.74 0.75 0.75 0.79 0.73 0.70 0.49 0.43 0.45 0.48 0.55 0.47 0.50 0.44 0.44 0.51 0.45 0.35 0.36 0.35 0.35 0.32 0.34 0.31 0.27 0.23 0.23 0.28 0.24 0.19 0.28 0.31 0.26 0.22 0.21 0.32 0.31 0.25 0.23 0.23 0.26 0.25 0.27 0.26 0.22 0.22 0.25 0.24 0.27 0.27 0.25 0.25 0.25 0.24 0.24 0.24 0.29 0.27 0.21 0.21 0.29 0.29 0.30 0.31 0.31 0.30 0.33 0.38 0.40 0.39 0.37 0.41 0.44 0.45 0.46 0.45
0.80 0.79 0.79 0.77 0.77 0.75 0.78 0.82 0.66 0.67 0.75 0.77 0.72 0.76 0.74 0.82 0.82 0.70 0.54 0.41 0.37 0.46 0.52 0.40 0.49 0.39 0.51 0.44 0.45 0.41 0.37 0.32 0.39 0.39 0.40 0.38 0.33 0.21 0.26 0.29 0.26 0.23 0.26 0.26 0.24 0.24 0.27 0.33 0.31 0.24 0.23 0.25 0.26 0.28 0.31 0.27 0.23 0.21 0.27 0.31 0.28 0.26 0.27 0.26 0.24 0.24 0.20 0.18 0.29 0.31 0.23 0.21 0.27 0.29 0.31 0.32 0.32 0.33 0.36 0.36 0.41 0.41 0.42 0.44 0.45 0.46 0.46 0.45
0.83 0.81 0.80 0.79 0.79 0.78 0.64 0.54 0.63 0.81 0.66 0.64 0.70 0.75 0.77 0.78 0.90 0.72 0.49 0.41 0.35 0.45 0.40 0.45 0.45 0.44 0.49 0.43 0.41 0.38 0.24 0.32 0.41 0.41 0.38 0.41 0.29 0.32 0.27 0.32 0.33 0.32 0.32 0.29 0.20 0.25 0.30 0.32 0.28 0.26 0.26 0.28 0.29 0.35 0.39 0.30 0.23 0.22 0.32 0.31 0.28 0.26 0.26 0.27 0.25 0.23 0.22 0.27 0.30 0.31 0.28 0.22 0.23 0.32 0.36 0.34 0.34 0.35 0.37 0.40 0.39 0.44 0.46 0.47 0.46 0.47 0.46 0.45
0.85 0.83 0.82 0.81 0.80 0.81 0.69 0.71 0.65 0.65 0.56 0.66 0.73 0.77 0.78 0.80 0.76 0.73 0.47 0.30 0.31 0.50 0.38 0.42 0.44 0.52 0.44 0.44 0.42 0.33 0.32 0.33 0.23 0.34 0.38 0.40 0.29 0.26 0.28 0.24 0.25 0.30 0.30 0.27 0.18 0.32 0.35 0.34 0.32 0.26 0.28 0.28 0.33 0.34 0.33 0.31 0.24 0.23 0.30 0.31 0.28 0.27 0.28 0.26 0.26 0.25 0.25 0.26 0.23 0.27 0.36 0.24 0.24 0.30 0.34 0.34 0.31 0.38 0.38 0.42 0.45 0.45 0.46 0.46 0.47 0.46 0.46 0.45
0.88 0.85 0.84 0.83 0.82 0.85 0.87 0.79 0.73 0.65 0.65 0.71 0.74 0.75 0.80 0.85 0.67 0.55 0.46 0.30 0.47 0.42 0.59 0.40 0.58 0.49 0.45 0.44 0.40 0.40 0.37 0.36 0.26 0.36 0.40 0.37 0.37 0.27 0.25 0.32 0.32 0.29 0.29 0.27 0.23 0.30 0.35 0.33 0.33 0.30 0.26 0.27 0.32 0.32 0.31 0.26 0.22 0.28 0.30 0.29 0.31 0.33 0.32 0.32 0.30 0.27 0.28 0.27 0.22 0.27 0.27 0.20 0.23 0.29 0.31 0.38 0.32 0.33 0.41 0.42 0.45 0.47 0.46 0.45 0.45 0.44 0.46 0.42
0.90 0.87 0.85 0.84 0.82 0.94 0.87 0.88 0.83 0.88 0.77 0.72 0.74 0.78 0.80 0.72 0.60 0.42 0.39 0.27 0.48 0.34 0.45 0.47 0.44 0.42 0.44 0.38 0.39 0.41 0.38 0.37 0.36 0.31 0.31 0.32 0.38 0.36 0.29 0.28 0.29 0.26 0.23 0.30 0.26 0.33 0.37 0.36 0.33 0.28 0.29 0.32 0.30 0.30 0.30 0.29 0.28 0.30 0.30 0.29 0.32 0.34 0.34 0.34 0.33 0.30 0.29 0.22 0.22 0.27 0.28 0.24 0.21 0.28 0.29 0.29 0.35 0.40 0.42 0.43 0.45 0.45 0.45 0.45 0.44 0.43 0.43 0.44
0.91 0.90 0.87 0.86 0.74 0.84 0.75 0.75 0.81 0.78 0.74 0.75 0.72 0.71 0.70 0.59 0.49 0.39 0.28 0.40 0.46 0.43 0.47 0.47 0.44 0.48 0.41 0.38 0.34 0.40 0.35 0.35 0.34 0.32 0.30 0.36 0.38 0.41 0.38 0.33 0.40 0.33 0.25 0.31 0.31 0.34 0.38 0.39 0.36 0.35 0.35 0.32 0.32 0.30 0.36 0.37 0.35 0.33 0.31 0.30 0.30 0.30 0.37 0.34 0.36 0.38 0.25 0.21 0.27 0.29 0.29 0.30 0.19 0.24 0.30 0.33 0.38 0.42 0.42 0.41 0.43 0.41 0.42 0.42 0.44 0.43 0.44 0.45
0.90 0.91 0.90 0.85 0.83 0.83 0.67 0.63 0.76 0.76 0.73 0.74 0.67 0.65 0.64 0.47 0.55 0.35 0.31 0.54 0.34 0.46 0.46 0.46 0.49 0.45 0.41 0.43 0.38 0.36 0.34 0.31 0.33 0.32 0.27 0.31 0.35 0.35 0.39 0.28 0.36 0.25 0.27 0.32 0.31 0.38 0.37 0.38 0.43 0.42 0.42 0.33 0.31 0.28 0.37 0.39 0.37 0.34 0.33 0.31 0.27 0.24 0.25 0.22 0.25 0.22 0.22 0.18 0.28 0.31 0.29 0.22 0.22 0.27 0.31 0.38 0.40 0.42 0.44 0.44 0.43 0.41 0.39 0.44 0.43 0.42 0.42 0.45
0.85 0.89 0.92 0.90 0.86 0.77 0.78 0.87 0.87 0.77 0.76 0.72 0.63 0.61 0.57 0.44 0.27 0.37 0.40 0.43 0.40 0.51 0.49 0.55 0.48 0.45 0.43 0.38 0.39 0.40 0.37 0.31 0.33 0.31 0.28 0.27 0.29 0.31 0.35 0.32 0.32 0.25 0.23 0.36 0.32 0.31 0.31 0.39 0.42 0.39 0.40 0.42 0.34 0.27 0.31 0.28 0.36 0.31 0.26 0.25 0.20 0.19 0.21 0.18 0.20 0.25 0.23 0.27 0.29 0.31 0.34 0.24 0.30 0.33 0.37 0.38 0.43 0.45 0.46 0.48 0.46 0.44 0.43 0.42 0.40 0.43 0.37 0.41
0.75 0.85 0.88 0.93 0.87 0.81 0.82 0.84 0.79 0.79 0.70 0.69 0.60 0.58 0.57 0.37 0.32 0.41 0.39 0.46 0.48 0.53 0.50 0.50 0.49 0.45 0.46 0.38 0.40 0.40 0.33 0.36 0.35 0.33 0.28 0.29 0.27 0.28 0.37 0.38 0.30 0.23 0.27 0.28 0.25 0.26 0.24 0.26 0.34 0.37 0.36 0.45 0.36 0.34 0.32 0.27 0.25 0.26 0.29 0.25 0.24 0.20 0.21 0.16 0.16 0.19 0.19 0.25 0.28 0.33 0.27 0.23 0.24 0.27 0.41 0.45 0.49 0.46 0.46 0.45 0.46 0.46 0.45 0.43 0.43 0.40 0.42 0.43
0.64 0.77 0.89 0.87 0.90 0.90 0.83 0.82 0.83 0.80 0.69 0.60 0.54 0.51 0.37 0.35 0.43 0.41 0.44 0.50 0.50 0.50 0.44 0.53 0.46 0.44 0.44 0.47 0.47 0.44 0.37 0.33 0.41 0.34 0.30 0.30 0.33 0.36 0.33 0.36 0.36 0.31 0.27 0.20 0.29 0.31 0.30 0.28 0.36 0.41 0.39 0.39 0.31 0.37 0.35 0.32 0.25 0.29 0.32 0.31 0.24 0.22 0.31 0.19 0.19 0.18 0.18 0.19 0.17 0.20 0.23 0.30 0.32 0.41 0.44 0.45 0.46 0.46 0.47 0.46 0.46 0.45 0.45 0.43 0.44 0.42 0.41 0.42
0.54 0.67 0.77 0.74 0.77 0.90 0.96 0.91 0.89 0.78 0.65 0.54 0.44 0.38 0.36 0.43 0.41 0.51 0.49 0.54 0.50 0.43 0.42 0.43 0.48 0.44 0.44 0.45 0.46 0.43 0.46 0.36 0.38 0.34 0.30 0.33 0.31 0.32 0.35 0.32 0.28 0.33 0.27 0.25 0.29 0.25 0.30 0.27 0.37 0.39 0.40 0.35 0.36 0.37 0.34 0.35 0.20 0.28 0.25 0.27 0.33 0.35 0.25 0.22 0.22 0.25 0.24 0.21 0.17 0.22 0.24 0.33 0.39 0.40 0.43 0.46 0.45 0.47 0.49 0.46 0.45 0.45 0.43 0.44 0.43 0.41 0.43 0.42
0.42 0.50 0.55 0.69 0.80 0.97 0.97 0.89 0.87 0.76 0.66 0.54 0.43 0.33 0.44 0.45 0.52 0.50 0.54 0.46 0.43 0.45 0.42 0.36 0.42 0.42 0.38 0.40 0.39 0.43 0.44 0.43 0.40 0.35 0.30 0.36 0.32 0.32 0.31 0.31 0.36 0.33 0.33 0.29 0.25 0.30 0.23 0.25 0.35 0.34 0.30 0.37 0.43 0.38 0.34 0.33 0.36 0.31 0.26 0.34 0.39 0.36 0.31 0.24 0.16 0.19 0.18 0.15 0.18 0.23 0.23 0.30 0.29 0.27 0.45 0.45 0.45 0.48 0.48 0.44 0.44 0.44 0.43 0.41 0.42 0.43 0.45 0.44
0.44 0.48 0.53 0.70 0.85 0.96 0.96 0.90 0.81 0.73 0.59 0.50 0.40 0.42 0.53 0.46 0.59 0.57 0.58 0.51 0.51 0.51 0.43 0.42 0.47 0.50 0.42 0.42 0.40 0.44 0.46 0.36 0.39 0.38 0.34 0.35 0.31 0.43 0.35 0.31 0.39 0.38 0.35 0.35 0.24 0.26 0.28 0.20 0.27 0.30 0.30 0.38 0.43 0.40 0.35 0.40 0.44 0.34 0.31 0.38 0.23 0.24 0.18 0.32 0.23 0.16 0.16 0.17 0.19 0.22 0.26 0.31 0.31 0.32 0.40 0.44 0.45 0.46 0.45 0.43 0.41 0.41 0.39 0.39 0.42 0.44 0.45 0.45
0.54 0.57 0.58 0.82 0.90 0.90 0.92 0.89 0.71 0.62 0.52 0.43 0.44 0.44 0.56 0.54 0.62 0.60 0.60 0.52 0.50 0.45 0.40 0.50 0.45 0.49 0.49 0.43 0.45 0.47 0.45 0.38 0.41 0.39 0.36 0.35 0.29 0.41 0.35 0.36 0.35 0.38 0.34 0.32 0.26 0.27 0.29 0.21 0.23 0.33 0.33 0.37 0.39 0.38 0.28 0.36 0.51 0.48 0.41 0.32 0.39 0.29 0.26 0.25 0.26 0.25 0.22 0.15 0.18 0.19 0.23 0.26 0.38 0.41 0.47 0.47 0.47 0.44 0.42 0.42 0.39 0.41 0.40 0.42 0.42 0.43 0.44 0.44
0.55 0.47 0.45 0.86 0.94 0.91 0.97 0.78 0.60 0.55 0.53 0.46 0.49 0.50 0.58 0.53 0.62 0.64 0.63 0.54 0.52 0.49 0.47 0.49 0.52 0.46 0.49 0.48 0.49 0.44 0.48 0.44 0.41 0.41 0.40 0.40 0.33 0.40 0.35 0.39 0.32 0.35 0.34 0.33 0.26 0.28 0.22 0.26 0.17 0.27 0.36 0.35 0.28 0.37 0.36 0.37 0.34 0.36 0.36 0.30 0.33 0.33 0.36 0.31 0.26 0.21 0.21 0.21 0.21 0.20 0.18 0.26 0.38 0.44 0.44 0.43 0.46 0.44 0.44 0.43 0.42 0.42 0.43 0.43 0.44 0.44 0.45 0.44
0.49 0.49 0.56 0.85 0.96 0.92 0.79 0.64 0.53 0.50 0.50 0.54 0.58 0.54 0.58 0.56 0.56 0.56 0.63 0.62 0.52 0.58 0.50 0.48 0.49 0.46 0.48 0.48 0.47 0.53 0.46 0.45 0.44 0.41 0.42 0.41 0.39 0.32 0.43 0.40 0.40 0.33 0.33 0.29 0.22 0.31 0.26 0.26 0.21 0.25 0.26 0.29 0.33 0.39 0.41 0.42 0.42 0.36 0.31 0.29 0.29 0.26 0.24 0.22 0.19 0.25 0.23 0.21 0.21 0.23 0.19 0.28 0.39 0.46 0.45 0.44 0.45 0.44 0.46 0.45 0.43 0.43 0.44 0.46 0.46 0.46 0.45 0.45
0.53 0.44 0.61 0.80 0.86 0.71 0.60 0.46 0.48 0.55 0.52 0.47 0.49 0.55 0.57 0.63 0.54 0.52 0.56 0.67 0.59 0.53 0.64 0.54 0.53 0.50 0.49 0.49 0.51 0.51 0.48 0.46 0.45 0.43 0.44 0.39 0.39 0.36 0.41 0.43 0.40 0.38 0.28 0.22 0.29 0.43 0.37 0.36 0.29 0.24 0.28 0.30 0.34 0.38 0.42 0.46 0.45 0.39 0.34 0.31 0.38 0.35 0.32 0.25 0.19 0.23 0.27 0.26 0.26 0.23 0.18 0.22 0.35 0.43 0.42 0.44 0.47 0.46 0.46 0.46 0.45 0.45 0.46 0.46 0.46 0.46 0.48 0.47
0.58 0.49 0.61 0.65 0.80 0.63 0.54 0.44 0.47 0.50 0.50 0.56 0.63 0.61 0.64 0.60 0.55 0.56 0.53 0.56 0.54 0.60 0.57 0.54 0.53 0.51 0.53 0.51 0.54 0.52 0.53 0.47 0.47 0.43 0.45 0.45 0.40 0.42 0.46 0.45 0.43 0.33 0.31 0.28 0.32 0.46 0.40 0.28 0.26 0.25 0.29 0.31 0.34 0.39 0.44 0.49 0.45 0.38 0.38 0.38 0.35 0.34 0.35 0.33 0.29 0.30 0.27 0.24 0.19 0.19 0.17 0.25 0.37 0.44 0.47 0.44 0.46 0.44 0.47 0.48 0.47 0.46 0.46 0.45 0.45 0.46 0.47 0.47
0.50 0.44 0.43 0.74 0.71 0.67 0.44 0.37 0.44 0.48 0.51 0.57 0.62 0.61 0.66 0.63 0.60 0.55 0.53 0.57 0.58 0.56 0.56 0.56 0.55 0.58 0.53 0.59 0.54 0.48 0.54 0.43 0.48 0.45 0.43 0.45 0.43 0.50 0.46 0.44 0.45 0.34 0.29 0.38 0.34 0.46 0.31 0.36 0.34 0.29 0.26 0.27 0.30 0.38 0.40 0.46 0.46 0.42 0.40 0.42 0.44 0.42 0.39 0.38 0.35 0.35 0.25 0.25 0.26 0.25 0.18 0.23 0.39 0.45 0.45 0.43 0.43 0.44 0.46 0.48 0.49 0.46 0.46 0.44 0.44 0.46 0.47 0.48
0.50 0.58 0.58 0.61 0.78 0.68 0.42 0.51 0.46 0.43 0.45 0.50 0.54 0.52 0.54 0.56 0.63 0.64 0.60 0.54 0.57 0.53 0.51 0.50 0.56 0.59 0.56 0.59 0.54 0.54 0.54 0.50 0.45 0.52 0.49 0.48 0.47 0.52 0.48 0.47 0.48 0.43 0.37 0.36 0.39 0.40 0.29 0.29 0.29 0.22 0.19 0.18 0.19 0.23 0.28 0.31 0.36 0.40 0.41 0.42 0.41 0.39 0.39 0.35 0.28 0.31 0.24 0.26 0.25 0.21 0.20 0.30 0.41 0.42 0.41 0.43 0.43 0.44 0.46 0.48 0.47 0.45 0.42 0.41 0.43 0.45 0.47 0.48
0.50 0.37 0.38 0.37 0.57 0.61 0.58 0.59 0.48 0.49 0.46 0.46 0.45 0.48 0.51 0.49 0.56 0.62 0.64 0.60 0.58 0.57 0.59 0.58 0.56 0.57 0.55 0.56 0.53 0.54 0.53 0.57 0.51 0.48 0.47 0.47 0.49 0.50 0.53 0.48 0.46 0.45 0.43 0.40 0.35 0.33 0.27 0.28 0.29 0.27 0.24 0.23 0.27 0.34 0.41 0.40 0.36 0.30 0.32 0.34 0.34 0.38 0.42 0.41 0.35 0.29 0.24 0.28 0.26 0.28 0.30 0.29 0.30 0.35 0.38 0.42 0.43 0.42 0.42 0.44 0.43 0.41 0.40 0.39 0.41 0.44 0.46 0.47
0.56 0.41 0.43 0.42 0.51 0.45 0.42 0.49 0.51 0.54 0.47 0.54 0.43 0.49 0.46 0.50 0.54 0.55 0.63 0.53 0.59 0.59 0.58 0.57 0.55 0.51 0.52 0.52 0.51 0.51 0.53 0.52 0.57 0.53 0.52 0.50 0.51 0.53 0.56 0.54 0.52 0.47 0.48 0.42 0.43 0.36 0.28 0.24 0.26 0.30 0.31 0.33 0.37 0.36 0.38 0.38 0.33 0.33 0.32 0.33 0.37 0.37 0.38 0.37 0.34 0.29 0.34 0.28 0.21 0.27 0.28 0.26 0.28 0.34 0.40 0.42 0.44 0.42 0.43 0.43 0.42 0.40 0.38 0.38 0.40 0.43 0.45 0.46
0.49 0.54 0.52 0.65 0.47 0.37 0.39 0.40 0.57 0.55 0.57 0.53 0.47 0.52 0.48 0.48 0.50 0.47 0.56 0.59 0.60 0.63 0.54 0.55 0.56 0.58 0.55 0.53 0.54 0.49 0.51 0.50 0.51 0.47 0.54 0.54 0.53 0.55 0.53 0.54 0.48 0.51 0.48 0.44 0.46 0.44 0.39 0.31 0.35 0.39 0.39 0.42 0.43 0.41 0.40 0.38 0.35 0.33 0.34 0.34 0.33 0.38 0.41 0.36 0.34 0.37 0.36 0.31 0.25 0.28 0.30 0.30 0.37 0.40 0.41 0.41 0.44 0.42 0.43 0.43 0.42 0.41 0.39 0.40 0.40 0.41 0.43 0.44
0.59 0.64 0.62 0.73 0.51 0.46 0.46 0.50 0.57 0.55 0.50 0.49 0.46 0.46 0.42 0.45 0.46 0.53 0.54 0.54 0.58 0.56 0.58 0.47 0.49 0.54 0.55 0.56 0.54 0.50 0.52 0.45 0.45 0.52 0.52 0.53 0.53 0.53 0.48 0.50 0.53 0.55 0.50 0.47 0.49 0.53 0.47 0.40 0.42 0.44 0.40 0.40 0.40 0.38 0.37 0.33 0.31 0.31 0.32 0.34 0.37 0.38 0.38 0.40 0.40 0.39 0.38 0.36 0.37 0.37 0.37 0.36 0.39 0.42 0.41 0.43 0.46 0.45 0.45 0.45 0.44 0.41 0.41 0.41 0.41 0.41 0.42 0.43
0.60 0.59 0.56 0.69 0.67 0.59 0.53 0.51 0.51 0.51 0.47 0.48 0.47 0.48 0.49 0.50 0.48 0.54 0.58 0.55 0.51 0.53 0.60 0.51 0.53 0.57 0.58 0.57 0.55 0.49 0.51 0.53 0.52 0.46 0.55 0.55 0.53 0.53 0.51 0.51 0.49 0.55 0.53 0.47 0.51 0.56 0.46 0.39 0.44 0.42 0.37 0.35 0.36 0.36 0.35 0.34 0.35 0.32 0.34 0.34 0.34 0.36 0.35 0.35 0.34 0.36 0.39 0.38 0.38 0.38 0.37 0.36 0.44 0.43 0.41 0.45 0.47 0.46 0.45 0.45 0.43 0.41 0.41 0.42 0.42 0.42 0.42 0.43
0.74 0.78 0.74 0.59 0.50 0.50 0.51 0.52 0.52 0.51 0.47 0.48 0.47 0.50 0.52 0.53 0.51 0.56 0.55 0.62 0.56 0.52 0.56 0.52 0.54 0.54 0.55 0.54 0.53 0.51 0.56 0.56 0.56 0.57 0.60 0.58 0.49 0.58 0.51 0.52 0.57 0.50 0.52 0.48 0.49 0.51 0.52 0.42 0.44 0.39 0.32 0.31 0.34 0.33 0.34 0.35 0.36 0.35 0.33 0.32 0.31 0.32 0.30 0.33 0.33 0.37 0.35 0.34 0.37 0.37 0.35 0.35 0.40 0.43 0.45 0.45 0.44 0.46 0.44 0.43 0.41 0.40 0.40 0.42 0.42 0.42 0.43 0.42
0.77 0.78 0.75 0.67 0.52 0.55 0.48 0.51 0.51 0.48 0.42 0.46 0.48 0.51 0.51 0.52 0.56 0.57 0.51 0.58 0.57 0.58 0.56 0.57 0.58 0.55 0.51 0.50 0.49 0.55 0.60 0.59 0.57 0.58 0.58 0.56 0.57 0.56 0.58 0.59 0.60 0.55 0.51 0.50 0.52 0.45 0.47 0.44 0.38 0.35 0.29 0.28 0.31 0.32 0.32 0.34 0.32 0.28 0.28 0.33 0.37 0.38 0.38 0.38 0.38 0.39 0.39 0.40 0.35 0.31 0.31 0.39 0.41 0.43 0.40 0.42 0.45 0.46 0.45 0.43 0.39 0.38 0.41 0.45 0.46 0.45 0.44 0.42
Wind_Speed
11 10 10 9 9 9 9 9 9 9 9 9 8 8 8 7 7 7 7 7 8 8 8 8 9 9 9 9 10 11 11 11 11 10 9 10 11 11 12 12 12 12 12 14 15 16 16 14 14 15 16 16 18 19 20 21 22 22 22 24 25 26 25 24 25 25 25 24 23 22 22 22 23 22 21 21 22 22 22 23 20 20 21 20 17 18 20 18
11 11 10 10 9 9 9 9 9 9 9 9 8 8 8 8 8 8 7 7 8 8 9 9 9 9 10 10 10 11 11 11 12 9 8 10 11 11 11 11 11 12 12 14 15 15 14 14 15 15 15 16 17 18 19 19 21 22 22 23 24 24 25 25 26 26 25 25 24 24 25 24 23 21 20 19 21 22 22 21 21 22 22 22 19 18 20 19
12 11 11 10 10 10 9 9 9 9 9 9 8 8 8 8 8 8 8 8 8 9 9 10 10 10 10 11 11 12 11 12 11 8 9 11 11 11 11 11 11 11 12 14 15 14 13 14 15 14 15 16 16 17 17 17 19 21 22 23 24 24 24 25 26 27 26 26 26 25 24 24 23 21 22 20 20 21 20 18 18 20 20 21 20 18 20 20
13 12 11 11 10 10 10 10 10 9 9 8 8 8 8 8 8 8 8 8 8 9 9 10 11 11 11 11 11 11 11 12 9 7 9 10 11 11 11 11 11 12 13 14 14 13 13 13 13 14 15 15 16 17 17 17 18 20 22 23 24 24 25 25 24 25 25 24 26 26 23 22 20 19 22 22 21 21 21 19 18 19 19 20 19 19 21 20
13 13 12 11 11 10 10 10 10 9 9 9 9 9 9 9 9 9 9 8 9 9 10 10 11 11 11 11 11 10 11 10 7 8 9 10 11 10 11 11 11 11 12 13 13 13 13 13 13 13 13 14 15 16 16 18 19 20 21 23 24 24 24 25 23 22 21 21 22 23 23 21 19 19 21 22 22 21 21 21 19 19 19 19 17 17 20 22
14 13 13 12 11 11 11 11 11 10 9 9 9 9 9 10 10 9 9 9 9 9 10 11 11 11 11 11 10 9 10 9 7 8 10 10 10 10 10 10 10 11 12 13 13 13 13 12 11 12 12 13 14 14 15 15 15 17 19 21 23 23 23 23 22 22 21 20 20 20 22 22 22 22 22 24 25 24 24 23 22 20 18 17 17 16 17 20
14 14 13 13 12 12 11 11 11 10 10 10 10 10 10 10 10 9 9 9 9 10 10 11 11 11 11 11 10 9 10 9 8 9 10 10 9 9 9 10 10 12 13 13 12 12 11 11 11 12 12 12 12 13 13 13 15 17 19 20 22 22 21 21 23 24 24 22 21 21 22 23 25 25 26 28 28 27 27 27 25 24 21 18 19 20 18 18
15 14 14 13 13 12 12 12 11 11 11 11 10 10 10 10 10 9 9 9 9 10 10 11 11 10 10 10 10 9 9 8 9 9 9 9 9 9 10 10 11 11 12 11 10 10 10 11 11 11 11 10 11 12 12 13 15 17 19 19 19 19 18 20 22 23 25 24 23 24 26 27 28 28 28 30 29 27 27 27 27 27 27 24 22 23 24 21
15 15 14 14 13 13 12 12 12 11 11 11 11 11 10 10 10 9 9 9 9 10 10 11 10 9 9 9 10 10 8 8 10 9 8 9 9 9 10 10 10 10 11 10 10 10 11 11 10 10 10 11 12 12 13 13 13 14 15 16 16 17 17 18 19 20 22 23 23 24 26 27 27 27 28 29 29 28 27 26 26 25 27 25 23 24 25 25
16 15 14 14 14 13 13 12 12 12 12 12 11 11 10 9 9 9 9 9 9 10 10 11 10 9 9 9 10 10 8 9 10 8 8 9 9 9 10 10 10 10 11 10 9 10 11 11 10 10 10 10 12 11 12 12 12 13 14 14 15 16 18 18 18 18 18 19 21 23 23 24 24 25 25 26 27 28 28 27 26 25 25 26 25 25 25 26
16 16 15 14 14 14 13 13 13 13 12 12 11 10 9 9 8 9 9 9 9 10 10 10 9 9 9 10 11 9 8 9 10 8 8 9 9 9 10 9 10 10 10 10 10 10 10 10 10 8 8 9 10 10 11 11 12 13 14 14 15 16 16 17 17 17 16 17 19 21 22 23 23 23 24 24 23 22 23 23 24 25 25 26 27 26 25 26
16 16 16 15 15 14 14 13 13 13 12 12 11 10 9 9 8 9 9 9 9 10 10 9 9 9 10 10 9 8 9 9 9 9 8 9 9 9 9 10 10 10 10 10 9 9 10 10 9 8 8 10 9 10 10 9 10 11 12 12 13 13 14 15 14 15 15 15 15 16 18 20 21 21 22 22 18 18 21 22 24 25 25 25 26 25 25 24
17 16 16 16 15 15 14 14 14 13 12 11 10 9 9 8 9 9 9 9 9 9 9 9 9 9 10 9 7 8 9 9 8 8 8 9 10 9 9 9 9 9 9 9 9 10 10 9 8 9 10 10 8 9 11 10 10 11 10 10 10 11 12 11 10 10 11 11 10 12 14 15 18 21 19 16 15 17 20 21 22 24 24 24 23 23 23 22
17 17 16 16 16 15 15 15 14 13 12 11 10 9 9 9 9 9 9 9 9 9 9 9 9 9 9 7 7 9 9 9 8 8 9 10 10 9 8 9 9 9 9 9 9 10 9 9 9 9 9 9 8 10 11 9 9 9 9 8 8 9 7 5 6 7 8 8 9 11 12 11 12 13 13 12 15 18 19 19 20 21 21 22 22 22 22 22
17 17 17 16 16 16 15 15 15 14 12 11 10 10 9 9 9 10 10 9 9 9 9 9 8 8 9 8 7 10 9 8 8 8 9 10 9 9 8 9 9 8 8 9 9 9 9 9 8 8 9 8 8 9 9 8 7 7 8 7 7 7 5 3 6 7 7 7 7 9 10 9 5 5 8 10 15 17 17 18 18 20 21 21 22 23 24 25
18 17 17 17 16 16 16 16 15 14 12 11 11 10 10 10 10 11 10 10 9 9 8 8 7 8 9 7 7 9 8 7 8 9 9 9 9 10 9 9 10 9 9 9 8 9 8 8 8 8 9 8 7 7 8 8 7 7 8 8 7 7 7 6 7 7 8 8 7 8 9 8 6 6 8 10 12 13 14 15 17 18 19 20 21 22 23 24
18 18 17 17 17 16 16 16 15 14 13 12 11 10 10 10 11 11 11 10 9 8 9 10 10 10 9 8 9 9 8 8 10 10 9 8 9 10 9 10 10 9 9 8 8 8 8 7 7 7 7 7 6 7 8 8 8 7 8 8 8 9 9 7 7 8 9 10 9 10 11 11 10 10 11 11 11 11 12 13 15 16 18 19 21 21 21 22
18 18 18 17 17 17 16 16 15 14 13 12 12 11 11 11 11 11 11 10 9 9 10 10 10 10 8 8 10 9 9 10 11 10 9 9 9 9 9 10 10 9 9 8 8 8 8 7 7 7 7 7 7 7 8 9 9 8 8 8 8 9 10 9 9 9 9 10 10 11 12 13 13 12 12 12 11 10 12 13 14 15 16 17 19 20 21 21
19 18 18 18 17 17 17 16 15 14 13 12 12 11 11 11 11 11 11 10 9 9 10 9 9 10 8 8 9 10 10 10 10 9 9 9 9 10 10 9 9 9 9 8 7 8 8 7 8 8 7 8 8 8 10 11 12 11 11 10 10 10 10 10 10 10 10 11 11 12 13 14 15 15 15 14 12 12 14 14 14 15 15 16 16 17 18 19
19 19 18 18 18 17 17 16 15 14 13 12 11 11 11 12 11 10 11 11 9 10 11 10 9 11 10 9 9 10 11 10 10 9 8 8 9 11 11 9 9 9 8 8 7 7 7 8 9 8 8 8 9 10 12 13 13 12 12 11 11 11 10 10 11 11 12 13 12 13 15 15 16 16 15 15 14 14 15 15 15 15 14 14 14 14 16 17
19 19 18 18 18 18 17 17 16 15 13 12 11 12 12 12 12 11 11 11 10 11 11 10 11 11 10 10 11 12 11 9 9 8 7 8 10 10 8 8 9 9 9 9 8 8 8 8 9 8 9 9 10 12 12 12 12 12 11 11 11 11 10 10 10 11 11 12 12 12 14 15 15 15 14 15 15 15 15 13 12 11 11 12 13 14 15 17
20 19 19 18 18 18 17 16 16 15 13 12 12 13 13 12 11 11 12 12 12 11 10 10 11 10 9 10 10 10 9 9 9 7 6 9 10 9 8 8 9 9 9 9 8 9 8 9 9 9 9 10 11 11 10 10 11 11 10 10 10 9 10 12 11 11 10 10 11 12 13 13 13 13 13 13 13 12 10 9 9 10 10 11 12 14 16 18
20 19 19 19 18 18 17 16 16 15 13 12 12 13 14 13 12 12 12 12 13 12 11 11 10 9 8 8 8 8 9 9 8 5 6 10 10 10 10 9 9 10 10 9 9 9 9 9 9 9 10 10 11 11 10 10 9 10 9 9 9 9 9 10 9 9 9 10 12 13 13 12 12 12 12 11 10 9 9 9 9 11 11 11 12 13 15 17
21 20 19 19 19 18 17 17 16 14 13 13 12 13 14 14 13 13 12 13 13 12 10 9 9 9 8 8 8 8 9 10 8 7 8 10 11 10 10 10 10 9 9 10 10 10 9 7 7 9 10 11 11 10 10 9 9 10 9 10 10 9 9 9 9 9 10 11 12 12 12 12 10 10 10 9 8 7 7 8 8 9 9 10 11 12 14 15
21 20 19 19 18 18 18 16 14 14 14 13 13 15 15 14 12 12 12 12 12 10 8 8 8 8 7 8 8 8 10 11 9 9 9 11 11 10 10 9 9 8 9 9 8 9 10 7 7 10 11 10 10 9 9 8 8 10 9 9 11 11 10 11 11 11 11 11 9 9 11 10 9 10 9 8 8 7 6 6 6 7 8 9 10 12 14 15
21 20 19 19 19 19 17 14 14 15 15 12 14 16 15 13 12 11 11 11 10 7 6 8 8 7 8 8 7 9 11 9 7 8 9 10 10 9 9 8 7 8 10 9 8 9 9 7 7 9 9 9 9 9 8 7 9 9 8 8 11 12 13 13 12 11 10 10 7 7 9 8 7 8 9 8 8 7 7 7 7 7 8 9 11 13 14 15
21 21 20 19 18 18 16 14 15 16 14 13 15 16 14 13 11 10 10 10 9 7 6 7 7 8 9 9 9 10 9 9 9 9 8 8 8 8 9 8 8 9 8 7 8 8 7 7 7 8 9 9 8 8 8 8 9 9 8 9 11 12 13 13 12 11 11 10 8 8 10 8 6 8 9 9 10 8 6 7 6 6 8 10 12 13 15 16
21 21 20 19 19 17 15 15 15 15 14 15 16 16 14 12 10 8 9 9 7 7 6 6 8 10 9 9 10 9 10 11 10 7 7 9 9 9 9 10 10 9 7 7 8 7 7 8 8 8 9 8 8 8 9 9 10 9 10 11 12 11 12 11 11 11 10 10 9 8 9 8 5 6 8 8 9 8 7 6 6 7 9 10 12 12 14 15
21 21 20 19 19 17 15 15 15 15 15 16 16 15 13 11 9 8 9 9 7 6 7 8 9 9 9 11 10 9 10 11 8 7 9 10 9 8 9 10 10 10 9 9 9 8 7 7 9 9 8 8 9 10 10 10 10 11 12 12 12 11 12 11 11 11 10 10 9 8 7 6 4 4 6 5 7 8 8 6 6 8 9 10 11 12 13 14
21 21 20 19 18 16 16 15 14 15 16 16 16 14 12 10 9 8 8 8 7 6 8 9 8 8 10 11 9 8 9 10 9 10 10 9 7 7 9 9 9 10 10 9 9 8 7 7 9 9 8 9 10 10 11 10 10 11 12 12 12 11 11 11 11 10 9 9 9 9 9 8 5 4 5 6 6 7 8 7 8 9 10 11 11 12 13 14
22 21 20 19 17 16 16 15 14 15 15 16 15 13 11 9 9 9 8 8 8 8 7 7 7 9 11 11 9 8 9 9 9 10 9 8 8 8 8 7 8 9 9 9 8 8 8 8 8 7 7 9 10 11 11 10 11 11 11 11 11 10 9 9 9 9 9 8 7 8 10 10 8 6 6 7 8 7 8 8 9 10 11 11 12 11 12 14
22 22 21 19 17 16 16 15 15 16 15 15 14 11 10 10 10 10 9 9 9 8 8 9 9 10 11 11 9 8 9 9 8 9 10 9 8 8 7 7 8 9 8 8 8 9 10 9 8 7 7 8 9 9 9 9 9 10 11 11 11 9 8 8 7 7 8 9 8 8 11 10 7 6 6 7 8 7 8 8 9 10 11 11 12 12 12 13
23 22 21 18 17 16 16 16 16 16 15 14 13 11 10 10 10 10 11 10 8 8 10 11 12 13 12 11 9 8 10 10 8 9 9 8 8 7 7 8 9 9 8 8 9 10 9 9 9 8 7 7 8 9 8 8 8 10 10 11 10 9 9 8 7 5 7 9 8 10 11 8 5 5 6 7 7 6 7 7 8 10 11 12 13 13 13 13
24 22 20 18 17 17 17 17 16 15 15 14 12 11 11 11 11 11 11 9 8 9 11 11 12 12 11 10 9 9 10 9 8 9 8 7 7 8 7 6 7 8 9 9 10 10 10 9 8 8 6 6 8 9 9 9 10 10 10 10 10 10 9 9 8 7 8 8 8 10 9 7 6 6 6 6 6 6 6 7 8 9 11 12 12 13 13 14
23 21 19 18 18 17 17 16 15 14 14 13 12 12 12 12 12 11 10 10 10 11 12 13 13 13 11 10 10 8 7 7 7 9 9 8 8 9 8 6 5 7 8 9 8 8 10 10 6 6 7 8 9 8 8 10 10 9 8 9 9 9 10 11 11 11 10 9 9 9 8 6 6 7 7 7 6 6 7 7 9 9 11 13 13 13 14 15
22 19 18 18 18 16 15 15 14 14 14 13 13 13 13 13 12 11 11 12 13 13 14 14 12 12 10 9 8 6 6 8 8 9 9 8 8 8 8 7 6 7 8 9 9 8 9 9 5 6 9 9 9 8 8 9 8 8 8 8 8 9 10 11 11 10 10 10 9 8 8 6 5 7 7 7 7 6 7 8 10 11 12 13 13 14 15 15
20 19 19 19 17 15 14 14 14 14 14 13 13 13 13 13 12 12 12 14 14 13 14 13 10 10 10 9 8 7 7 8 8 8 8 8 8 7 8 8 8 9 9 9 9 8 9 10 9 10 11 8 8 9 10 9 8 8 8 8 8 9 8 9 10 9 9 11 9 8 10 8 8 8 8 8 8 7 8 10 11 12 13 14 14 15 16 16
20 19 19 17 15 13 14 14 14 14 14 13 14 15 14 13 12 12 13 14 14 12 12 12 10 10 10 10 9 9 9 9 8 9 10 9 8 7 8 9 8 9 9 9 9 9 9 11 11 11 10 7 6 9 10 8 8 8 9 8 8 8 8 7 8 8 9 10 10 9 9 8 8 9 8 9 8 8 10 11 12 13 15 15 15 16 17 17
20 19 17 14 13 13 14 14 14 15 14 14 14 14 14 13 12 12 13 13 12 12 11 11 11 10 10 10 11 11 11 11 10 10 10 9 8 8 9 10 7 7 7 8 9 9 9 11 10 9 9 7 7 9 9 8 7 8 9 9 7 8 9 8 8 9 10 10 10 11 9 8 8 8 8 9 9 10 12 12 12 14 15 16 17 17 17 17
20 19 16 13 14 15 15 15 15 15 14 14 14 14 13 13 12 12 12 12 12 12 11 11 11 11 11 12 12 12 11 11 11 11 10 11 10 8 9 9 9 9 9 9 10 10 10 10 10 10 9 8 8 8 8 8 8 8 8 9 8 9 10 9 9 9 9 10 10 11 11 9 9 10 10 11 11 12 12 12 14 15 16 17 18 17 17 17
19 18 16 15 16 16 16 16 15 14 14 14 14 14 14 14 14 14 12 12 12 11 11 12 12 12 13 13 12 11 11 11 11 11 11 11 10 9 8 8 10 11 11 11 10 9 9 10 11 11 9 9 10 8 7 9 9 9 9 10 10 10 10 10 10 9 9 10 10 11 12 10 9 11 12 12 12 13 13 14 15 16 16 17 18 18 18 18
17 16 16 16 17 17 16 16 16 15 15 15 15 15 14 14 15 15 12 12 12 11 11 12 12 13 13 13 12 12 11 12 12 12 11 11 10 9 8 7 9 11 11 11 10 8 9 10 11 12 11 12 12 10 8 9 10 11 11 10 10 10 9 10 10 10 11 12 12 13 13 11 10 12 13 13 13 14 14 15 16 16 17 17 18 19 19 19
18 18 18 18 17 17 16 16 16 15 15 16 16 16 15 15 15 15 13 13 12 12 11 12 12 13 12 12 12 12 12 12 12 12 12 12 10 10 8 8 9 10 10 10 10 9 10 10 11 12 12 12 12 10 9 9 11 11 11 10 10 10 10 10 11 11 12 13 13 12 12 10 10 11 12 13 14 14 15 16 16 17 17 18 19 19 19 20
19 20 19 18 16 16 17 16 16 15 15 15 15 15 15 15 15 15 14 13 12 12 12 13 12 12 12 12 12 13 12 12 12 12 12 12 11 11 12 11 10 10 10 9 9 9 9 9 9 10 10 10 8 8 8 9 9 10 10 11 11 11 12 12 12 12 12 13 12 11 11 10 9 10 11 13 15 15 16 16 17 17 18 19 20 20 20 20
19 18 17 16 15 16 17 16 16 16 16 15 14 14 15 14 14 14 15 15 14 14 13 13 13 12 13 13 13 14 13 12 13 13 13 13 12 12 12 10 9 10 10 8 9 10 10 10 11 11 11 10 9 8 9 9 10 10 11 12 13 13 14 13 13 12 12 13 12 12 13 12 11 11 12 14 15 15 15 16 17 18 19 20 20 19 19 20
17 16 16 15 15 15 16 15 16 17 16 16 16 16 16 15 14 15 15 15 14 13 13 13 13 13 13 13 13 14 14 14 14 13 14 13 12 12 12 11 12 13 9 8 10 11 12 12 13 13 13 13 13 13 13 13 14 14 14 15 15 14 14 14 13 13 13 13 13 13 13 14 13 13 14 15 14 14 15 16 17 18 20 20 20 19 19 20
16 15 16 15 14 15 14 14 15 15 15 16 16 17 17 17 16 15 14 14 13 13 13 13 13 12 12 12 13 14 14 14 14 14 15 15 14 15 15 15 15 12 9 9 10 10 11 13 13 14 14 15 16 17 17 16 16 17 17 17 16 16 15 15 15 15 14 14 14 13 13 15 15 15 16 16 15 15 15 16 17 19 20 20 20 20 20 20
15 15 15 15 14 15 14 14 14 15 16 16 16 17 18 18 17 16 15 14 14 13 13 13 13 13 13 13 13 13 14 14 14 14 14 14 14 14 14 14 13 9 8 11 11 10 11 12 13 14 15 16 17 17 17 17 17 17 17 17 17 17 16 16 17 17 16 15 16 15 16 17 17 17 16 15 14 15 15 16 18 19 20 20 20 20 20 20
16 15 15 15 15 16 16 16 15 16 17 17 16 16 17 17 17 17 16 15 15 14 14 14 14 14 14 14 14 14 14 14 14 14 14 14 15 14 13 13 12 10 10 12 11 10 11 12 12 14 15 16 17 17 17 17 17 17 17 17 17 17 17 17 17 17 17 18 18 18 19 18 16 16 15 14 14 15 16 17 19 19 19 19 19 19 19 20
16 15 15 16 16 16 17 16 16 17 17 16 16 16 16 16 16 16 16 15 15 15 15 16 16 15 15 15 15 15 15 15 15 15 15 15 15 14 14 13 13 12 12 11 10 10 10 11 12 14 15 16 17 17 16 16 16 17 18 18 18 18 18 17 17 17 17 18 18 18 18 17 14 13 14 14 15 16 17 18 18 18 19 19 19 18 19 20
16 16 15 15 15 15 15 15 15 16 16 16 16 16 15 15 15 15 16 16 17 16 16 16 16 15 15 16 16 16 16 16 16 17 16 16 16 15 14 14 13 13 12 11 11 10 10 12 13 14 15 15 15 16 16 16 16 18 18 17 17 16 16 15 15 15 16 16 16 16 16 15 12 12 14 15 16 17 17 18 18 18 18 19 18 18 18 19
17 16 15 15 15 14 15 15 15 15 16 15 15 15 16 16 15 15 16 16 17 17 16 16 16 16 16 17 16 16 16 16 17 17 17 18 18 17 17 16 15 14 13 12 12 11 12 13 13 14 14 15 15 16 16 16 16 16 14 13 13 13 13 13 13 14 14 15 15 14 14 13 13 14 16 16 16 16 16 18 19 18 18 18 18 18 19 19
Wind_Direction
1 359 357 354 350 348 346 345 344 343 341 341 340 339 340 340 339 337 335 334 334 333 332 333 330 325 322 320 320 318 316 314 309 305 308 314 312 306 303 302 301 300 301 299 295 291 288 284 282 278 273 268 264 261 258 254 251 249 249 250 251 252 252 254 254 254 258 260 258 257 258 256 251 248 248 246 245 248 249 247 249 249 245 244 239 233 235 236
359 357 354 351 348 345 343 342 341 340 339 338 338 338 338 338 337 333 330 329 329 330 329 329 326 322 319 317 318 316 315 311 307 314 323 318 314 310 306 305 302 301 303 303 301 296 291 290 286 279 274 270 265 260 258 255 250 247 251 252 252 253 255 256 256 257 259 259 259 260 258 256 253 246 246 246 242 243 247 246 246 249 247 243 238 232 236 241
358 355 352 349 346 344 341 339 338 337 336 335 335 334 334 335 334 330 326 324 325 326 326 326 324 321 317 316 316 316 317 311 305 320 329 321 318 314 309 306 304 303 306 307 306 303 299 295 291 285 277 273 266 260 257 255 252 250 251 253 255 256 257 256 256 259 258 260 262 259 256 255 253 244 241 245 243 241 243 246 245 247 247 244 241 235 239 245
358 354 351 348 345 343 340 338 336 335 334 332 332 331 331 331 329 325 321 320 321 323 324 325 324 321 317 316 317 318 319 313 312 331 327 322 321 315 313 309 306 306 307 308 303 302 304 298 293 289 283 277 268 260 258 260 257 254 252 254 257 258 259 256 257 261 257 262 263 253 250 251 250 244 238 239 240 239 241 247 249 248 249 250 246 237 239 245
357 354 351 348 345 342 340 338 336 333 331 330 329 327 326 325 324 321 318 317 319 322 323 324 324 323 319 316 318 318 318 318 324 332 323 321 320 317 319 313 311 313 312 311 306 304 305 301 297 290 285 282 274 263 260 264 260 255 257 259 259 259 259 255 259 264 258 264 264 249 242 244 248 248 243 240 241 244 244 246 249 248 251 255 248 237 238 241
356 354 351 349 345 342 340 338 335 331 328 326 325 323 322 322 321 318 316 317 318 320 322 323 323 322 321 317 315 312 312 323 329 324 321 320 318 320 323 318 316 318 315 310 309 309 304 300 298 294 290 285 279 271 265 266 263 260 264 264 263 261 258 256 258 260 258 263 262 249 243 245 250 249 247 247 248 252 247 246 254 250 249 256 247 237 239 238
355 353 351 349 346 343 340 338 335 331 325 323 321 319 319 320 319 317 315 316 316 318 320 322 321 321 322 319 316 310 307 322 330 323 325 324 319 321 322 322 322 316 314 313 314 317 312 304 300 303 296 284 285 280 272 275 272 271 271 267 265 262 259 259 260 257 256 260 257 251 248 249 252 251 251 250 252 253 247 248 255 248 246 256 248 240 244 243
354 352 350 348 346 343 340 338 336 331 325 320 318 316 317 318 317 316 314 314 315 315 317 319 319 320 324 322 319 314 307 319 329 323 326 326 321 320 318 319 319 317 321 324 325 324 322 313 306 312 301 290 302 290 280 286 277 272 271 266 263 261 261 262 262 258 254 256 255 251 249 252 255 254 252 251 252 252 247 249 252 246 245 253 251 244 246 247
352 351 350 348 345 343 340 338 335 332 328 322 317 315 315 315 314 314 312 313 314 314 316 317 317 319 322 322 319 318 313 318 326 323 324 326 321 318 317 318 319 321 328 328 325 324 324 320 314 317 307 297 307 295 286 289 280 279 275 269 268 264 265 266 261 257 253 252 252 251 250 252 253 253 252 250 252 251 249 249 248 245 244 248 251 246 245 247
352 350 349 348 345 343 340 337 335 332 328 324 320 317 315 314 314 314 313 313 313 314 315 316 316 317 317 316 317 320 317 313 318 323 328 326 319 318 318 324 327 326 328 327 323 323 324 326 322 316 309 302 303 296 291 287 286 293 285 278 278 271 269 267 262 257 254 252 251 251 252 252 251 251 251 250 251 249 248 247 245 246 246 248 251 249 248 249
350 349 348 347 345 343 340 337 334 331 327 324 321 318 317 315 315 315 314 314 313 314 316 316 314 313 312 312 316 321 317 312 315 319 325 323 318 323 326 327 327 324 326 326 323 325 323 324 323 313 312 317 310 301 296 288 290 294 286 282 279 274 272 265 262 258 254 255 254 253 255 254 252 250 249 250 248 243 242 244 244 247 249 248 250 251 251 249
349 348 346 345 344 342 340 337 334 330 327 323 320 317 315 314 315 315 314 314 313 315 316 314 312 313 314 312 315 323 318 312 316 318 318 322 321 324 330 328 324 322 324 323 324 329 323 320 320 307 309 320 313 310 311 298 295 295 286 284 280 277 272 260 257 257 254 256 252 254 258 255 250 249 249 246 241 239 241 246 246 247 250 249 250 251 249 248
348 346 345 344 343 341 339 337 334 331 327 322 319 315 313 313 314 314 314 314 314 316 316 314 314 314 314 317 328 330 320 312 314 319 320 323 321 315 321 329 326 323 324 321 322 327 324 320 314 302 306 312 307 316 320 301 292 296 288 283 283 285 276 252 244 253 256 252 247 256 259 258 257 249 243 237 233 238 242 245 246 247 248 248 247 247 245 245
347 345 344 343 342 340 339 338 335 332 328 322 318 314 313 313 312 312 313 313 312 314 315 314 317 317 308 309 332 334 323 314 309 311 318 324 323 312 314 326 327 324 324 320 319 322 322 320 312 304 305 304 304 314 316 301 288 291 292 286 279 289 290 235 224 251 253 243 248 256 252 271 277 238 222 232 239 244 247 247 247 246 246 246 245 245 245 246
346 344 343 342 341 339 338 338 336 332 328 323 319 315 314 312 311 310 310 309 310 313 316 313 314 319 311 300 317 331 326 316 313 313 318 324 325 322 316 318 323 325 325 321 319 322 321 319 312 306 304 294 297 311 312 308 296 282 286 296 284 280 294 254 242 255 255 245 246 247 247 272 287 203 210 240 244 247 248 250 250 247 247 247 246 246 249 250
345 343 342 341 340 338 337 337 335 332 328 323 319 315 312 310 310 309 306 304 306 311 314 312 305 305 312 313 311 321 323 318 323 319 315 319 320 322 321 315 314 316 319 320 320 323 322 318 311 306 308 299 289 303 312 312 307 291 283 291 290 280 284 271 247 251 259 256 250 248 252 261 250 232 250 250 246 249 248 252 252 248 248 248 249 249 249 249
343 342 341 339 338 338 336 335 334 330 326 322 318 314 312 309 308 307 304 300 300 308 310 307 308 301 299 311 308 310 319 318 322 318 311 317 318 317 319 316 313 309 310 311 312 319 316 313 314 306 306 304 295 301 309 311 312 310 294 285 288 284 283 272 246 252 257 250 253 256 256 259 253 249 255 249 246 250 252 257 255 251 251 250 250 249 248 248
339 339 339 338 337 336 335 334 333 329 324 321 316 311 309 308 308 306 302 300 297 304 308 302 310 312 299 305 311 311 316 315 316 315 308 308 313 316 316 316 320 313 304 301 301 309 307 303 309 307 304 305 302 301 304 308 311 309 297 288 290 283 277 273 259 256 256 250 256 260 258 261 260 255 255 253 245 247 257 260 259 257 254 252 252 250 249 246
336 336 336 336 335 335 334 334 332 329 325 321 316 311 308 306 308 305 298 298 295 300 312 307 307 315 308 307 314 314 317 317 314 310 308 307 306 309 309 308 313 307 304 308 300 297 299 297 298 300 304 304 299 299 302 306 308 304 297 291 289 282 276 275 266 256 255 257 259 261 261 262 262 260 258 256 252 255 260 260 260 260 255 252 253 252 249 244
334 333 333 333 333 333 332 332 331 330 327 321 316 313 311 309 307 304 298 291 286 295 306 307 308 309 307 309 312 313 312 310 309 306 308 315 311 307 305 299 300 299 301 308 303 302 304 298 296 292 295 300 300 303 303 302 301 299 294 289 285 282 280 277 273 267 260 258 260 262 264 264 263 262 260 260 262 263 261 259 260 260 256 254 253 252 250 247
331 330 331 331 331 330 330 330 331 330 326 321 315 312 318 320 311 308 308 294 284 293 296 299 307 303 304 311 310 314 312 299 303 306 310 319 315 311 308 300 299 297 294 294 297 307 305 296 299 298 298 305 306 306 304 299 297 294 291 290 284 283 289 287 284 280 267 258 262 267 267 265 263 261 260 259 260 260 259 256 254 256 259 258 256 255 253 253
327 327 328 328 328 327 326 327 328 329 326 321 313 310 319 325 313 305 306 298 292 289 286 293 304 298 299 309 310 318 315 302 297 293 306 321 316 315 317 308 301 299 298 294 291 294 291 290 293 293 299 306 305 303 301 298 298 296 293 291 288 291 298 298 289 280 270 261 266 273 271 267 265 262 260 256 254 252 249 244 244 253 261 262 262 260 259 260
325 324 324 325 326 325 323 323 324 326 324 320 317 317 320 318 310 303 297 295 295 287 278 284 295 296 298 305 313 315 308 309 304 288 313 318 310 314 316 305 299 303 302 293 288 289 290 294 290 289 301 305 301 298 295 294 296 294 291 290 292 292 288 293 291 275 270 269 270 273 273 270 267 264 260 250 242 239 235 239 248 253 258 262 265 265 265 266
323 321 321 322 323 322 321 320 320 322 320 317 322 326 322 315 310 306 298 293 294 286 273 277 292 297 300 302 307 308 304 308 299 290 318 319 309 312 307 300 299 300 296 287 287 290 295 308 301 291 299 301 299 298 291 291 298 298 294 292 296 294 283 288 293 283 283 282 273 274 275 272 270 269 260 239 227 228 229 233 243 251 255 258 263 266 267 268
322 320 318 319 320 320 318 315 317 320 316 315 323 325 321 316 312 307 302 296 294 283 263 273 291 293 303 305 299 304 306 304 291 288 309 313 310 308 300 303 300 294 302 301 295 288 290 312 314 298 298 295 293 297 294 295 302 302 302 299 299 301 297 295 295 291 290 286 278 277 275 270 272 267 247 225 221 220 220 227 239 251 260 265 268 272 273 272
320 318 316 315 317 319 315 312 316 316 313 315 322 322 319 317 312 306 303 295 290 283 262 273 286 291 305 304 296 303 307 308 300 297 308 312 311 305 299 304 294 292 306 304 296 293 287 296 305 302 302 296 291 295 298 300 300 302 310 308 301 299 295 292 292 288 286 286 284 276 270 272 272 253 229 224 230 222 224 244 255 261 274 281 281 281 280 279
317 316 314 312 314 317 315 311 313 313 313 317 319 319 317 315 311 305 301 292 284 276 269 275 286 293 298 299 301 300 303 313 305 294 303 317 319 306 298 302 295 296 308 298 291 299 293 291 298 298 295 293 293 292 295 301 298 298 311 311 305 301 294 290 289 284 284 287 286 272 267 273 267 242 230 229 227 223 235 252 263 276 287 289 288 285 283 283
315 315 312 310 309 311 309 308 309 313 315 314 315 316 314 312 309 303 298 296 289 276 278 288 295 298 293 294 298 293 300 313 305 293 298 305 312 306 295 300 300 295 304 301 293 297 290 285 297 301 292 291 293 293 299 302 294 293 307 310 307 304 295 289 287 283 283 284 283 273 261 271 275 244 236 232 222 225 244 257 272 291 298 296 294 291 288 288
313 313 312 309 306 304 304 304 302 306 311 311 312 313 311 307 303 299 293 294 291 280 285 292 291 297 298 295 287 282 299 307 302 308 306 297 299 299 293 302 305 293 289 290 289 299 299 288 302 304 292 296 301 301 302 297 290 295 305 304 299 299 293 288 285 283 285 278 274 270 256 263 278 238 235 244 233 232 244 262 283 294 303 303 299 296 293 294
310 311 311 309 305 302 302 301 296 300 307 309 311 310 306 301 296 292 287 288 292 287 292 295 290 294 304 306 290 275 295 303 300 305 305 299 293 293 294 296 302 297 288 282 279 293 302 295 302 294 286 305 308 301 295 284 287 295 297 296 296 301 296 287 283 281 284 277 267 266 256 249 250 245 252 249 236 236 247 266 288 297 305 307 301 300 299 297
308 308 309 306 302 301 302 301 300 304 306 307 309 305 298 294 290 288 287 290 290 288 294 296 299 302 305 309 299 283 294 301 303 302 299 298 289 293 298 287 295 301 290 281 276 286 294 292 299 287 284 305 304 299 293 278 283 290 290 293 298 307 305 292 285 275 271 276 277 266 253 250 255 260 256 242 234 242 256 273 290 300 305 304 299 300 305 304
306 306 305 301 296 297 297 297 302 304 304 305 305 298 291 291 284 279 285 292 287 289 295 291 297 307 305 302 294 292 303 302 303 304 301 297 288 289 295 289 301 307 296 287 281 286 291 285 289 288 289 300 300 307 305 286 285 290 291 295 297 306 308 298 292 273 267 279 285 268 256 259 264 252 236 232 237 248 263 279 292 299 302 302 301 302 306 308
305 304 303 298 293 293 292 293 298 300 301 302 298 289 286 287 284 282 287 293 291 295 299 292 293 299 296 295 295 297 303 300 300 308 306 299 293 291 294 294 298 296 293 294 286 286 289 280 276 281 291 295 296 309 313 302 299 296 296 299 299 302 300 299 298 284 284 290 284 270 263 260 251 245 239 233 239 255 268 281 291 298 302 303 303 303 309 312
304 302 299 296 292 289 289 291 293 296 298 296 290 284 279 279 287 293 293 294 297 300 302 297 295 294 283 284 297 301 298 292 293 305 307 298 293 295 295 295 292 288 287 290 292 293 293 286 273 273 289 294 293 305 310 308 305 299 296 296 299 299 293 297 303 297 296 294 280 269 268 262 242 242 247 237 242 262 274 285 292 297 306 309 304 302 308 312
303 300 296 295 293 289 287 287 289 294 295 290 284 279 275 278 287 293 291 291 296 301 304 299 292 291 281 272 284 295 297 298 295 298 299 290 290 299 298 292 301 305 295 288 300 303 294 292 279 270 287 292 293 304 310 308 307 306 303 298 301 301 290 290 293 293 294 294 285 271 272 278 252 240 245 243 248 265 275 290 298 302 309 311 307 303 304 307
301 298 293 292 291 286 282 283 287 292 292 287 281 276 274 280 288 291 288 289 294 297 301 298 290 288 286 274 273 275 287 303 303 301 300 288 288 301 301 299 309 314 303 292 296 300 292 294 291 278 282 283 288 301 308 308 309 312 311 302 298 302 299 293 288 287 286 284 284 277 274 272 242 240 252 254 254 265 281 297 303 306 310 310 309 306 305 306
300 298 293 290 288 283 279 281 285 289 289 283 278 275 276 282 288 289 288 289 292 292 293 294 289 285 285 280 279 281 290 300 300 301 303 294 289 293 292 298 303 302 300 292 287 291 293 292 289 285 283 279 285 294 296 296 296 305 314 307 298 302 307 301 293 291 285 279 281 281 273 257 247 258 267 264 262 272 291 302 304 306 309 310 310 308 306 307
300 298 295 290 285 283 282 283 285 286 286 280 276 275 277 283 288 290 291 292 291 290 288 286 284 282 279 278 284 293 295 295 298 300 300 297 298 296 292 299 303 301 301 290 279 286 292 290 289 289 287 282 286 290 291 289 282 289 309 313 303 304 308 304 299 297 291 285 285 284 277 267 270 273 261 258 268 283 296 302 304 307 309 310 311 308 307 307
296 295 295 291 286 285 285 287 287 284 283 280 278 278 278 279 284 287 292 294 289 285 285 283 281 278 274 276 284 290 288 286 295 302 301 299 297 291 293 297 295 300 308 295 283 286 289 288 289 290 290 289 288 290 294 296 285 281 299 309 301 304 307 303 300 297 292 288 286 286 283 275 275 268 253 263 282 292 298 300 302 306 308 310 310 309 307 307
293 290 289 288 287 288 288 288 286 282 280 278 277 280 281 279 281 283 288 292 287 281 282 283 283 279 276 277 283 286 284 283 288 293 294 296 293 286 292 295 288 294 308 301 290 287 283 281 283 286 288 285 285 287 287 291 293 289 297 304 298 299 304 300 296 295 293 292 288 289 287 274 264 264 267 278 288 292 297 299 301 305 307 308 308 308 308 308
294 288 283 283 285 287 287 286 284 281 279 278 277 282 284 280 280 281 280 284 282 279 280 281 280 280 278 277 280 280 281 282 284 286 289 293 295 293 293 295 292 295 301 296 290 291 285 279 284 287 283 279 282 289 283 280 289 294 297 301 297 298 304 300 296 296 295 292 288 290 291 281 269 272 278 284 287 291 296 298 300 303 306 306 306 306 307 308
294 288 286 285 284 284 283 282 283 280 278 278 280 283 283 278 278 279 277 278 279 279 280 278 277 278 277 276 278 278 279 282 281 283 287 288 293 297 291 293 297 295 292 287 286 296 293 283 283 283 278 277 279 285 289 285 290 292 291 294 295 295 299 296 296 302 299 294 291 290 290 283 274 277 281 282 285 290 294 297 299 301 304 304 304 306 307 308
293 291 290 286 282 282 280 280 282 280 280 282 282 281 282 279 278 279 277 275 277 277 276 277 278 278 276 276 277 278 282 283 279 278 281 284 292 300 294 296 301 295 287 283 284 292 289 280 279 281 280 279 274 277 286 287 291 292 287 290 293 290 291 294 297 300 296 295 298 294 290 288 283 283 283 282 286 291 293 296 297 299 302 303 304 306 306 307
296 294 290 284 280 280 277 276 279 280 281 285 284 282 282 278 275 278 277 273 274 276 276 278 279 277 277 277 276 278 280 279 277 278 280 282 289 295 292 294 298 292 283 283 289 293 288 281 281 284 286 280 268 273 286 285 291 295 287 289 292 289 289 293 296 295 290 293 297 293 291 293 289 289 291 291 292 293 294 294 296 297 299 302 304 304 304 306
299 295 292 285 280 280 277 275 277 277 278 283 284 284 285 281 276 278 278 274 273 273 275 277 278 276 276 275 275 277 276 273 276 279 280 282 284 288 290 288 289 286 278 278 288 289 284 281 280 280 282 280 274 283 296 295 295 293 285 285 287 285 287 290 293 291 289 293 295 290 291 293 289 291 298 297 296 296 296 296 297 298 299 301 303 303 303 305
302 299 298 291 282 281 280 276 275 273 275 279 279 280 284 283 281 281 278 275 273 271 271 275 278 277 276 277 277 278 276 273 274 275 277 280 281 287 289 285 285 284 272 268 282 283 279 277 274 272 273 276 279 286 295 296 292 289 287 286 284 283 283 285 286 285 288 295 294 287 290 292 292 297 302 302 302 302 301 301 301 300 300 301 302 302 303 304
301 300 302 298 288 284 283 279 276 273 275 279 278 278 281 281 281 281 276 273 275 274 271 273 275 275 276 280 280 278 277 276 274 275 278 279 280 285 287 285 287 282 263 265 279 280 276 273 272 272 272 274 279 283 286 288 287 287 288 287 285 283 281 279 278 280 286 292 289 290 297 297 297 302 303 303 306 306 304 305 305 304 303 303 303 303 304 305
302 300 303 301 290 285 286 285 282 279 279 281 279 278 280 278 277 276 274 274 275 273 271 271 272 273 276 281 281 279 280 280 278 279 280 280 283 287 288 286 286 277 263 272 279 279 277 276 275 276 276 277 279 280 282 283 283 284 286 285 284 283 280 277 276 277 281 283 283 290 295 294 296 301 302 303 307 308 307 308 308 307 307 306 305 304 304 305
308 304 303 303 295 287 286 286 284 281 279 278 279 280 279 276 274 273 273 273 271 271 272 271 272 275 278 279 279 277 279 280 280 282 283 283 284 285 284 284 283 279 276 276 277 278 278 277 278 279 279 281 281 282 284 286 286 286 285 283 283 282 280 279 277 277 278 278 282 287 289 289 295 300 301 304 307 308 308 309 311 311 311 310 307 306 306 306
312 309 305 302 297 291 287 285 283 282 278 276 278 281 279 276 274 272 271 271 270 272 274 272 273 276 277 278 277 276 279 280 281 282 282 283 283 281 279 279 278 279 280 276 274 274 273 275 282 285 284 284 284 284 286 288 290 289 286 284 284 282 281 280 279 279 279 279 283 287 288 291 295 296 298 303 307 308 310 312 314 315 314 311 308 308 308 307
314 312 306 300 295 292 291 288 286 283 280 277 278 279 278 276 277 275 272 269 268 269 273 276 277 278 276 276 276 278 280 280 279 280 279 279 279 277 276 275 273 275 277 275 272 270 269 275 283 285 284 284 286 287 288 291 292 289 285 285 285 282 281 284 284 282 281 281 284 286 287 291 296 298 300 304 306 308 311 313 315 316 315 314 312 311 311 310
316 313 308 302 297 294 292 291 289 287 284 282 279 276 274 274 277 277 274 271 268 267 271 276 279 278 276 276 276 278 282 281 280 280 279 278 278 275 272 270 268 267 269 272 274 272 272 278 283 284 284 286 287 290 293 295 293 289 287 288 289 286 286 290 290 288 286 284 283 283 285 291 297 300 301 303 306 308 311 314 315 316 317 317 316 315 315 313